Location: Izdebno
(52.6670°N, 16.2170°E)
Time: 03:54:05
(UTC+02:00)

SR - Pass Details

Date: 01 March 2024
Orbit: 577 x 862 km, 66.7° (Epoch: 22 April)

Event Time Altitude Azimuth Distance (km) Brightness Sun altitude
Rises 15:07:03 0° 232° (SW) 3,435 ? 19.0°
Reaches altitude 10° 15:09:36 10° 236° (SW) 2,489 ? 18.7°
Maximum altitude 15:15:19 59° 316° (NW) 960 ? 18.1°
Drops below altitude 10° 15:20:42 10° 36° (NE) 2,349 ? 17.4°
Sets 15:23:09 0° 40° (NE) 3,262 ? 17.1°
